Regional Weather Roundup
Issued by NWS Goodland, KS

Home | Current Version | Previous Version | Graphics & Text | Print | Product List | Glossary On
Versions: 1 2 3 4 5 6 7 8 9 10 11 12 13 14 15 16 17 18 19 20 21 22 23 24 25 26 27 28 29 30 31 32 33 34 35 36 37 38 39 40 41 42 43 44 45 46 47 48 49 50
000
ASUS43 KGLD 231459
RWRGLD

GOODLAND FORECAST AREA HOURLY WEATHER ROUNDUP
NATIONAL WEATHER SERVICE GOODLAND KS
900 AM MDT THU OCT 23 2014

...OFFICIAL OBSERVATIONS...

CITY           SKY/WX    TMP DP  RH WIND       PRES   REMARKS
GOODLAND KS    MOSUNNY   56  50  80 W3        30.16R
HILL CITY KS   FOG       55  55 100 CALM      30.12R VSB 1/4
IMPERIAL NEB   SUNNY     49  37  63 W6        30.13R
MCCOOK NEB     FOG       46  45  96 SW7       30.13R VSB<1/4
AKRON CO       MOSUNNY   49  40  71 W13       30.16R
BURLINGTON CO  MOSUNNY   54  46  74 W5        30.17R
LIMON CO       SUNNY     52  44  74 N3        30.20R
$$

...UNOFFICIAL OBSERVATIONS...

CITY           SKY/WX    TMP DP  RH WIND       PRES   REMARKS
GOVE KS          N/A     54  32  43 MISG        N/A
SHARON SPRINGS   N/A     52  50  93 CALM        N/A
TRENTON NEB      N/A     51  32  48 CALM        N/A
KIT CARSON CO    N/A     56  50  80 CALM        N/A
YUMA CO          N/A     48  43  83 W6          N/A
$$



USA.gov is the U.S. government's official web portal to all federal, state and local government web resources and services.